Location: Gro�wechsungen
(51.4926°N, 10.6901°E)
Time: 07:24:19
(UTC+00:00)

SPOT 3 Rocket - Pass Details

Date: 04 February 2021
Orbit: 780 x 794 km, 98.7° (Epoch: 24 February)

Event Time Altitude Azimuth Distance (km) Brightness Sun altitude
Exits shadow 20:49:58 15° 319° (NW) 2,024 6.2 -42.2°
Drops below altitude 10° 20:51:00 10° 326° (NNW) 2,353 6.6 -42.3°
Sets 20:53:38 0° 338° (NNW) 3,289 7.4 -42.7°
